Location: Unspecified
(0.0000°N, 0.0000°E)
Time: 23:31:25
(UTC+00:00)

S-56A Canister/Altair - Pass Details

Date: 15 December 2018
Orbit: 633 x 2500 km, 38.9° (Epoch: 18 January)

Event Time Altitude Azimuth Distance (km) Brightness Sun altitude
Rises 09:32:36 0° 324° (NW) 6,129 11.7 48.3°
Reaches altitude 10° 09:37:00 10° 331° (NNW) 5,155 11.5 49.2°
Maximum altitude 09:50:54 43° 37° (NE) 2,972 11.0 51.9°
Drops below altitude 10° 10:02:15 10° 105° (ESE) 4,280 12.0 54.0°
Sets 10:05:28 0° 111° (ESE) 5,041 12.2 54.6°
